Home > Weather > Sarajevo > Past weeks

Flag for Bosnia-Herzegovina Weather for the Past 2 Weeks in Sarajevo, Bosnia-Herzegovina

Now
41 °F

Passing clouds.


Feels Like: 38 °F
Forecast: 27 / 46 °F
Wind: 5 mph from Northwest

Location: Sarajevo / Butmir

Current Time: Feb 11, 2016 at 2:00:48 AM

Latest Report: Feb 11, 2016 at 1:00 AM


Visibility: N/A

Pressure: 29.68 "Hg (27.82 "Hg at 526m altitude)

Humidity: 70%

Dew point: 32 °F

Location of SarajevoLocation

Historic Weather in Sarajevo — Graph

°F

Sarajevo Temperature Yesterday

Maximum temperature yesterday: 54 °F (at 12:00 AM)
Minimum temperature yesterday: 41 °F (at 9:30 PM)
Average temperature yesterday: 48 °F

High & Low Weather Summary for the Past Weeks

 TemperatureHumidityPressure
High64 °F (Feb 1, 2:00 PM)100% (Jan 27, 12:00 AM)30.51 "Hg (Jan 27, 12:00 AM)
Low23 °F (Feb 6, 7:30 AM)45% (Feb 9, 1:00 PM)29.33 "Hg (Feb 10, 9:00 AM)
Average41 °F81%30.17 "Hg
* Reported Midnight between Jan 26 and Jan 27 — Midnight between Feb 10 and Feb 11, Sarajevo, Weather by CustomWeather, © 2016

Note: Actual official high and low records may vary slightly from our data, if they occured in-between our weather recording intervals... More about our weather records

Advertising

Sarajevo Weather History for the Previous 24 Hours

 ConditionsComfort  
Time TempWeatherWind HumidityBarometerVisibility
12:00 AM
Thu, Feb 11
43 °FPassing clouds.6 mph66%29.65 "HgN/A
11:00 PM
Wed, Feb 10
45 °FPassing clouds.12 mph53%29.59 "HgN/A
10:00 PM43 °FPassing clouds.1 mph57%29.56 "HgN/A
9:30 PM41 °FPassing clouds.5 mph57%29.56 "HgN/A
9:00 PM45 °FPassing clouds.9 mph49%29.53 "HgN/A
8:30 PM45 °FPassing clouds.8 mph53%29.53 "HgN/A
8:00 PM45 °FPartly cloudy.14 mph57%29.56 "HgN/A
7:30 PM45 °FPassing clouds.5 mph76%29.53 "HgN/A
7:00 PM43 °FPassing clouds.No wind71%29.50 "HgN/A
6:30 PM43 °FPassing clouds.2 mph71%29.50 "HgN/A
6:00 PM45 °FPartly cloudy.3 mph76%29.47 "HgN/A
5:30 PM46 °FPartly cloudy.5 mph62%29.47 "HgN/A
5:00 PM46 °FBroken clouds.5 mph71%29.45 "HgN/A
4:30 PM46 °FBroken clouds.6 mph76%29.45 "HgN/A
4:00 PM45 °FLight rain. Broken clouds.7 mph76%29.45 "HgN/A
3:30 PM46 °FBroken clouds.5 mph82%29.42 "HgN/A
3:00 PM46 °FLight rain. Broken clouds.15 mph71%29.42 "Hg5 mi
2:30 PM48 °FLight rain. Broken clouds.14 mph62%29.39 "HgN/A
2:00 PM48 °FLight rain. Broken clouds.12 mph66%29.39 "HgN/A
1:30 PM48 °FLight rain. Broken clouds.15 mph66%29.42 "HgN/A
1:00 PM52 °FPartly sunny.8 mph50%29.39 "HgN/A
12:30 PM52 °FPartly sunny.10 mph54%29.39 "HgN/A
12:00 PM52 °FBroken clouds.16 mph58%29.42 "HgN/A
11:30 AM48 °FRain. Broken clouds.17 mph76%29.42 "Hg4 mi
11:00 AM48 °FRain. Broken clouds.16 mph76%29.42 "Hg4 mi
10:30 AM48 °FRain. Broken clouds.14 mph82%29.39 "Hg4 mi
10:00 AM46 °FRain. Broken clouds.6 mph82%29.36 "Hg5 mi
9:30 AM46 °FRain. Partly sunny.10 mph82%29.36 "Hg4 mi
9:00 AM48 °FRain. Broken clouds.16 mph76%29.33 "Hg4 mi
8:30 AM48 °FRain. Broken clouds.18 mph76%29.36 "Hg5 mi
8:00 AM46 °FRain. Broken clouds.14 mph82%29.39 "Hg5 mi
7:30 AM46 °FRain. Broken clouds.13 mph82%29.39 "Hg4 mi
7:00 AM46 °FRain. Partly sunny.15 mph82%29.42 "Hg5 mi
6:30 AM48 °FLight rain. Passing clouds.15 mph71%29.39 "HgN/A
6:00 AM50 °FLight rain. Passing clouds.15 mph67%29.39 "HgN/A
5:30 AM52 °FLight rain. Passing clouds.15 mph62%29.39 "HgN/A
5:00 AM50 °FLight rain. Partly cloudy.15 mph67%29.39 "HgN/A
4:00 AM52 °FPassing clouds.22 mph62%29.45 "HgN/A
3:00 AM54 °FPassing clouds.14 mph54%29.53 "HgN/A
2:00 AM52 °FPartly cloudy.16 mph62%29.56 "HgN/A
Weather by CustomWeather, © 2016

See weather overviewHow to use our weather pages